Starlink 31201

operational
NORAD ID: 58870 Int'l Des: 2024-019 Owner: SPXS Country: US Constellation: starlink
LEOCIRCULAR

Starlink 31201について

説明を読み込み中...

リアルタイム位置

3D地球を読み込み中...

次回通過

高度履歴

Altitude vs Time

uPlot chart will show altitude changes over time

軌道要素

1 58870U 24019T 25352.26084980 .00001237 00000-0 54479-4 0 9994
2 58870 43.0043 348.3878 0001405 273.3064 86.7627 15.27574201106614
Epoch: Dec 18, 2025 • Age: 27 hours

現在のステータス

高度 486.8 km
速度 7.63 km/s
衛星直下点 41.53°N, 137.9°W
打ち上げ日 Jan 29, 2024
運用期間 1.8 years
タイプ internet

技術仕様

分類 Payload
質量 730.00 kg
乾燥質量 700.00 kg
総質量 730.00 kg
長さ 0.30 m
直径 4.10 m
スパン 29.00 m
形状 Box + pan
製造者 SPXS
バスタイプ Starlink V2M
フェーズステータス In Orbit
所有者/国 SPXS/US

大規模コンステレーション

Loading constellations...